User: anonymous   Login
Location: Lawrence
(38.9720°N, 95.2350°W)
Time: 11:40:51
(UTC-05:00)
Language:

ALOS - Orbit

View from above orbital plane
View from above orbital plane
View from above satellite
View from above satellite

Ground track
Ground track

The orbit data is extracted from the following two-line orbital elements,

1 28931U 06002A   18141.40948691  .00000143  00000-0  36789-4 0  9992
2 28931  97.8208 156.3883 0001573  42.5422 317.5905 14.62491791656896
Epoch (UTC): 21 May 2018 09:49:39
Eccentricity: 0.0001573
inclination: 97.8208°
perigee height: 684 km
apogee height: 686 km
right ascension of ascending node: 156.3883°
argument of perigee: 42.5422°
revolutions per day: 14.62491791
mean anomaly at epoch: 317.5905°
orbit number at epoch: 65689

The dashed part of the orbit path shows where the satellite is in the earth's shadow,  

DLR